Location: Oberkirch
(48.5323°N, 8.0787°E)
Time: 21:02:12
(UTC+00:00)

BlueWalker 3 - Visible Passes

Search period start: 19 January 2026 00:00
Search period end: 29 January 2026 00:00
Orbit: 451 x 463 km, 53.2° (Epoch: 19 January)

Date Brightness Start Highest point End Pass type
(mag) Time Alt. Az. Time Alt. Az. Time Alt. Az.
19 Jan 4.4 18:32:42 10° SSW 18:33:08 12° S 18:33:08 12° S visible
20 Jan 3.6 17:57:44 10° S 17:59:36 18° SSE 17:59:36 18° SSE visible
21 Jan 3.7 17:22:56 10° S 17:25:04 15° SE 17:25:59 14° ESE visible
21 Jan 4.1 18:58:30 10° WSW 18:59:45 20° SW 18:59:45 20° SW visible
22 Jan 4.0 16:48:23 10° SSE 16:49:48 12° SE 16:51:12 10° ESE visible
22 Jan 2.3 18:23:09 10° SW 18:26:02 51° SSW 18:26:02 51° SSW visible
23 Jan 2.0 17:47:49 10° SW 17:51:18 51° SE 17:52:15 38° E visible
23 Jan 4.9 19:25:23 10° W 19:26:00 14° W 19:26:00 14° W visible
24 Jan 2.4 17:12:32 10° SW 17:15:55 41° SE 17:18:23 16° ENE visible
24 Jan 3.4 18:49:52 10° W 18:52:08 34° WNW 18:52:08 34° WNW visible
25 Jan 1.9 18:14:21 10° WSW 18:17:53 60° NNW 18:18:12 57° N visible
26 Jan 1.8 17:38:50 10° WSW 17:42:24 70° NNW 17:44:13 27° NE visible
26 Jan 4.5 19:16:54 10° WNW 19:17:58 17° WNW 19:17:58 17° WNW visible
27 Jan 1.7 17:03:20 10° WSW 17:06:55 82° NNW 17:10:12 12° ENE visible
27 Jan 3.1 18:41:20 10° WNW 18:43:56 33° NW 18:43:56 33° NW visible
28 Jan 2.5 18:05:45 10° W 18:09:09 40° N 18:09:53 35° NNE visible
